GPS BIII-2 (PRN 18)

Last updated on Tue Mar 03 2026 00:03:21 GMT+0000 (Coordinated Universal Time)

1 44506U 19056A 26061.19407716 -.00000097 00000+0 00000+0 0 9995 2 44506 55.6857 335.3972 0058018 198.2061 333.0166 2.00568128 47924
UTC large
Height (km)
Speed (km/s)
/
Latitude / Longitude
Inclination (degrees)
Orbital Period (minutes)
Azimuth
Elevation
Range (km)
Doppler Factor

Next 0 passes for location: London (51.5072 / 0.1276)

Sorry there are no passes over London.